Winona, MN

11:56 PM CST on December 11, 2017 (GMT -0600)
Winona Municipal-Conrad

Weather History for KONA - October, 2013

Change the Weather History Date:

Thursday, October 3, 2013

  Actual Average Record
Temperature  
Mean Temperature 62 °F -  
Max Temperature 69 °F 67 °F 93 °F (1997)
Min Temperature 55 °F 46 °F 28 °F (1996)
Degree Days  
Heating Degree Days 3    
Growing Degree Days 12 (Base 50)    
Moisture  
Dew Point 57 °F    
Average Humidity 92    
Maximum Humidity 100    
Minimum Humidity 53    
Precipitation  
Precipitation 0.00 in - - ()
Sea Level Pressure  
Sea Level Pressure 29.87 in    
Wind  
Wind Speed 3 mph (ESE)    
Max Wind Speed 14 mph    
Max Gust Speed 28 mph    
Visibility 9 miles    
Events Rain , Thunderstorm    
Averages and records for this station are not official NWS values.
T = Trace of Precipitation, MM = Missing Value Source: NWS Daily Summary

Daily Weather History Graph

Daily Weather History Graph

Search for Another Location

Airport or City:

Trip Planner

Search our weather history database for the weather conditions in past years. The results will help you decide how hot, cold, wet, or windy it might be!

Date:

Astronomy

Oct. 03, 2013 Rise Set
Actual Time 7:07 AM CDT 6:43 PM CDT
Civil Twilight 6:38 AM CDT 7:12 PM CDT
Nautical Twilight 6:04 AM CDT 7:45 PM CDT
Astronomical Twilight 5:31 AM CDT 8:19 PM CDT
Moon 5:39 AM CDT (10/3) 5:53 PM CDT (10/3)
Length of Visible Light 12h 33m
Length of Day
11h 36m
Waning Crescent, 2% of the Moon is Illuminated
Oct 3
Waning Crescent
Oct 4
New
Oct 11
First Quarter
Oct 18
Full
Oct 26
Last Quarter

Hourly Weather History & Observations

Time (CDT) Temp. Dew Point Humidity Pressure Visibility Wind Dir Wind Speed Gust Speed Precip Events Conditions
12:16 AM 60.8 °F 50.0 °F 68% 29.86 in 10.0 mi Calm Calm - N/A   Overcast
12:36 AM 60.8 °F 51.8 °F 72% 29.86 in 10.0 mi Calm Calm - N/A   Overcast
12:57 AM 69.8 °F 53.6 °F 56% 29.86 in 10.0 mi South 4.6 mph - N/A   Mostly Cloudy
1:16 AM 69.8 °F 51.8 °F 53% 29.92 in 7.0 mi West 13.8 mph 27.6 mph N/A   Overcast
1:36 AM 59.0 °F 53.6 °F 82% 29.94 in 4.0 mi NW 5.8 mph 20.7 mph N/A Rain , Thunderstorm Heavy Thunderstorms and Rain
1:57 AM 59.0 °F 55.4 °F 88% 29.93 in 7.0 mi Calm Calm - N/A Rain , Thunderstorm Light Thunderstorms and Rain
2:16 AM 59.0 °F 55.4 °F 88% 29.94 in 10.0 mi North 4.6 mph - N/A Rain , Thunderstorm Light Thunderstorms and Rain
2:36 AM 59.0 °F 55.4 °F 88% 29.93 in 7.0 mi Calm Calm - N/A Rain Light Rain
2:57 AM 55.4 °F 53.6 °F 94% 29.91 in 10.0 mi East 4.6 mph - N/A Rain Light Rain
3:16 AM 55.4 °F 53.6 °F 94% 29.91 in 10.0 mi ESE 5.8 mph - N/A   Mostly Cloudy
3:36 AM 55.4 °F 53.6 °F 94% 29.90 in 10.0 mi ESE 4.6 mph - N/A   Scattered Clouds
3:56 AM 55.4 °F 53.6 °F 94% 29.90 in 10.0 mi Calm Calm - N/A   Mostly Cloudy
4:16 AM 55.4 °F 53.6 °F 94% 29.90 in 10.0 mi Calm Calm - N/A   Scattered Clouds
4:36 AM 55.4 °F 55.4 °F 100% 29.89 in 10.0 mi Calm Calm - N/A   Mostly Cloudy
4:56 AM 55.4 °F 55.4 °F 100% 29.90 in 10.0 mi SE 4.6 mph - N/A   Overcast
5:16 AM 55.4 °F 55.4 °F 100% 29.90 in 10.0 mi Calm Calm - N/A   Overcast
5:36 AM 55.4 °F 53.6 °F 94% 29.91 in 10.0 mi Calm Calm - N/A   Overcast
5:56 AM 55.4 °F 53.6 °F 94% 29.90 in 10.0 mi East 3.5 mph - N/A   Overcast
6:17 AM 55.4 °F 53.6 °F 94% 29.89 in 10.0 mi SE 8.1 mph - N/A   Overcast
6:36 AM 55.4 °F 53.6 °F 94% 29.89 in 10.0 mi SE 4.6 mph - N/A   Mostly Cloudy
6:56 AM 55.4 °F 53.6 °F 94% 29.88 in 10.0 mi SSE 3.5 mph - N/A   Scattered Clouds
7:17 AM 55.4 °F 53.6 °F 94% 29.89 in 10.0 mi SE 4.6 mph - N/A Thunderstorm Mostly Cloudy
7:36 AM 55.4 °F 53.6 °F 94% 29.95 in 10.0 mi WNW 8.1 mph - N/A Rain , Thunderstorm Thunderstorms and Rain
7:43 AM 55.4 °F 53.6 °F 94% 29.92 in 7.0 mi ENE 3.5 mph - N/A Rain , Thunderstorm Light Thunderstorms and Rain
8:16 AM 55.4 °F 55.4 °F 100% 29.87 in 10.0 mi SSE 8.1 mph - N/A Rain Light Rain
8:36 AM 55.4 °F 55.4 °F 100% 29.85 in 10.0 mi SSE 9.2 mph - N/A   Clear
8:56 AM 59.0 °F 55.4 °F 88% 29.86 in 10.0 mi SE 5.8 mph - N/A   Clear
9:16 AM 59.0 °F 57.2 °F 94% 29.85 in 10.0 mi SE 5.8 mph - N/A   Clear
9:36 AM 59.0 °F 55.4 °F 88% 29.86 in 10.0 mi ESE 3.5 mph - N/A   Clear
9:56 AM 59.0 °F 55.4 °F 88% 29.86 in 10.0 mi Calm Calm - N/A   Clear
10:17 AM 60.8 °F 57.2 °F 88% 29.87 in 10.0 mi Calm Calm - N/A   Clear
10:36 AM 60.8 °F 55.4 °F 82% 29.86 in 10.0 mi Calm Calm - N/A   Clear
10:56 AM 60.8 °F 57.2 °F 88% 29.86 in 10.0 mi Calm Calm - N/A   Clear
11:17 AM 60.8 °F 59.0 °F 94% 29.85 in 10.0 mi Calm Calm - N/A   Mostly Cloudy
11:36 AM 60.8 °F 57.2 °F 88% 29.86 in 10.0 mi ENE 3.5 mph - N/A   Overcast
11:56 AM 60.8 °F 57.2 °F 88% 29.86 in 10.0 mi Calm Calm - N/A   Overcast
12:16 PM 59.0 °F 57.2 °F 94% 29.86 in 10.0 mi NE 4.6 mph - N/A   Light Drizzle
12:36 PM 59.0 °F 55.4 °F 88% 29.86 in 10.0 mi NE 3.5 mph - N/A   Overcast
12:56 PM 59.0 °F 57.2 °F 94% 29.86 in 10.0 mi Calm Calm - N/A Rain , Thunderstorm Light Thunderstorms and Rain
1:16 PM 59.0 °F 57.2 °F 94% 29.87 in 4.0 mi NW 4.6 mph - N/A Rain , Thunderstorm Thunderstorms and Rain
1:36 PM 59.0 °F 57.2 °F 94% 29.89 in 1.5 mi WNW 8.1 mph - N/A Rain , Thunderstorm Heavy Thunderstorms and Rain
1:57 PM 59.0 °F 57.2 °F 94% 29.86 in 2.0 mi NNW 4.6 mph - N/A Rain , Thunderstorm Thunderstorms and Rain
2:16 PM 59.0 °F 59.0 °F 100% 29.87 in 3.0 mi SE 5.8 mph - N/A Rain , Thunderstorm Heavy Thunderstorms and Rain
2:36 PM 59.0 °F 59.0 °F 100% 29.80 in 3.0 mi ESE 12.7 mph 16.1 mph N/A Rain Rain
2:57 PM 60.8 °F 59.0 °F 94% 29.80 in 10.0 mi SE 4.6 mph - N/A Rain Light Rain
3:16 PM 62.6 °F 60.8 °F 94% 29.80 in 10.0 mi SSE 6.9 mph - N/A   Scattered Clouds
3:37 PM 62.6 °F 62.6 °F 100% 29.80 in 10.0 mi SE 9.2 mph - N/A   Scattered Clouds
3:56 PM 62.6 °F 60.8 °F 94% 29.81 in 10.0 mi SE 5.8 mph 9.2 mph N/A   Mostly Cloudy
4:16 PM 62.6 °F 60.8 °F 94% 29.82 in 10.0 mi SE 5.8 mph - N/A   Overcast
4:37 PM 62.6 °F 60.8 °F 94% 29.82 in 10.0 mi SE 5.8 mph - N/A   Overcast
4:56 PM 62.6 °F 60.8 °F 94% 29.83 in 10.0 mi Calm Calm - N/A   Overcast
5:16 PM 62.6 °F 60.8 °F 94% 29.83 in 10.0 mi Calm Calm - N/A Rain Light Rain
5:37 PM 62.6 °F 60.8 °F 94% 29.83 in 10.0 mi Calm Calm - N/A   Overcast
5:56 PM 62.6 °F 60.8 °F 94% 29.82 in 10.0 mi Calm Calm - N/A   Overcast
6:16 PM 62.6 °F 60.8 °F 94% 29.82 in 10.0 mi Calm Calm - N/A   Overcast
6:37 PM 62.6 °F 60.8 °F 94% 29.83 in 10.0 mi Calm Calm - N/A   Overcast
6:56 PM 62.6 °F 60.8 °F 94% 29.84 in 10.0 mi Calm Calm - N/A   Overcast
7:16 PM 62.6 °F 60.8 °F 94% 29.84 in 10.0 mi NE 3.5 mph - N/A   Overcast
7:36 PM 62.6 °F 60.8 °F 94% 29.84 in 10.0 mi Calm Calm - N/A   Overcast
7:56 PM 62.6 °F 60.8 °F 94% 29.85 in 10.0 mi NE 3.5 mph - N/A   Overcast
8:16 PM 62.6 °F 59.0 °F 88% 29.85 in 10.0 mi NNE 4.6 mph - N/A   Overcast
8:36 PM 60.8 °F 59.0 °F 94% 29.85 in 10.0 mi NNE 3.5 mph - N/A Rain Light Rain
8:57 PM 60.8 °F 59.0 °F 94% 29.85 in 7.0 mi NNW 3.5 mph - N/A Rain Light Rain
9:17 PM 60.8 °F 60.8 °F 100% 29.86 in 10.0 mi Calm Calm - N/A   Overcast
9:36 PM 60.8 °F 59.0 °F 94% 29.86 in 7.0 mi Calm Calm - N/A   Overcast
9:56 PM 60.8 °F 59.0 °F 94% 29.86 in 7.0 mi Calm Calm - N/A   Overcast
10:17 PM 60.8 °F 59.0 °F 94% 29.87 in 7.0 mi Calm Calm - N/A   Overcast
10:36 PM 60.8 °F 59.0 °F 94% 29.86 in 7.0 mi Calm Calm - N/A   Overcast
11:36 PM 60.8 °F 60.8 °F 100% 29.87 in 7.0 mi Calm Calm - N/A   Overcast
11:56 PM 60.8 °F 60.8 °F 100% 29.87 in 7.0 mi Calm Calm - N/A   Overcast